FW6296 Weather Reports


time (UTC)temp
F
wind
direction
speed
knots
gust
knots
rain 1hr
in
rain 24hr
in
rain mn
in
humidity
%
barometer
mb
20260504024016 60 270 0.0 2.6 0.00 0.28 0.28 64 1007.2
20260504023016 60 283 0.0 2.6 0.00 0.28 0.28 63 1007.1
20260504022016 60 267 0.9 2.6 0.00 0.28 0.28 62 1007.0
20260504021016 60 271 0.9 3.5 0.00 0.28 0.28 62 1006.9
20260504020016 61 270 0.9 3.5 0.00 0.28 0.28 61 1006.9
20260504015017 61 254 0.9 2.6 0.00 0.28 0.28 61 1006.7
20260504014017 61 282 0.9 3.5 0.00 0.28 0.28 60 1006.7
20260504013017 61 307 0.0 1.7 0.00 0.28 0.28 61 1006.8
20260504012017 62 285 0.9 3.5 0.00 0.28 0.28 59 1006.7
20260504011017 62 276 1.7 3.5 0.00 0.28 0.28 58 1006.6
20260504010038 63 280 0.9 3.5 0.00 0.28 0.28 57 1006.6
20260504005018 64 276 0.9 3.5 0.00 0.28 0.28 57 1006.6
20260504004015 64 289 0.9 2.6 0.00 0.28 0.28 56 1006.7
20260504003015 65 293 0.9 4.3 0.00 0.28 0.28 54 1006.7
20260504002016 66 297 1.7 3.5 0.00 0.28 0.28 54 1006.7
20260504001016 66 301 2.6 6.1 0.00 0.28 0.28 52 1006.7
20260504000016 67 285 1.7 4.3 0.00 0.28 0.28 51 1006.8
20260503235016 67 291 2.6 6.1 0.00 0.28 0.28 51 1006.8
20260503234036 68 283 2.6 8.7 0.00 0.28 0.28 49 1006.7
20260503233017 68 285 4.3 9.6 0.00 0.28 0.28 48 1006.7
20260503232017 69 292 3.5 6.1 0.00 0.28 0.28 48 1006.7
20260503231017 69 280 3.5 7.8 0.00 0.28 0.28 47 1006.8
20260503230017 69 288 3.5 9.6 0.00 0.28 0.28 47 1006.9
20260503225037 69 291 3.5 8.7 0.00 0.28 0.28 48 1007.0
20260503224017 67 270 1.7 5.2 0.00 0.28 0.28 49 1007.1
20260503223017 66 275 1.7 4.3 0.00 0.28 0.28 50 1007.2
20260503222018 66 274 1.7 4.3 0.00 0.28 0.28 50 1007.3
20260503221017 66 222 0.9 5.2 0.00 0.28 0.28 49 1007.4
20260503220018 66 263 1.7 9.6 0.00 0.28 0.28 49 1007.5
20260503215059 67 249 1.7 5.2 0.00 0.28 0.28 48 1007.5
20260503214015 67 271 2.6 6.1 0.00 0.28 0.28 47 1007.7
20260503213016 67 266 1.7 6.1 0.00 0.28 0.28 48 1007.8
20260503212016 67 257 2.6 5.2 0.00 0.28 0.28 47 1008.0
20260503211016 66 285 2.6 4.3 0.00 0.28 0.28 48 1008.2
20260503210016 65 282 1.7 5.2 0.00 0.28 0.28 49 1008.4
20260503205037 65 274 1.7 5.2 0.00 0.28 0.28 48 1008.5
20260503204016 65 269 2.6 6.1 0.00 0.28 0.28 47 1008.6
20260503203017 64 270 3.5 8.7 0.00 0.28 0.28 47 1008.8
20260503202017 65 275 2.6 6.1 0.00 0.28 0.28 47 1009.0
20260503201017 65 275 2.6 7.0 0.00 0.28 0.28 47 1009.0
20260503200017 64 267 2.6 7.8 0.00 0.28 0.28 48 1009.1
20260503195058 65 259 3.5 8.7 0.00 0.28 0.28 47 1009.2
20260503194018 66 258 3.5 7.8 0.00 0.28 0.28 47 1009.4
20260503193018 65 269 1.7 6.1 0.00 0.28 0.28 49 1009.6
20260503192018 64 257 1.7 5.2 0.00 0.28 0.28 51 1009.7
20260503191018 64 259 2.6 7.8 0.00 0.28 0.28 52 1009.9
20260503190015 63 250 1.7 5.2 0.00 0.28 0.28 55 1010.1
20260503185016 62 257 1.7 6.1 0.00 0.28 0.28 56 1010.3
20260503184016 61 245 2.6 8.7 0.00 0.28 0.28 60 1010.6
20260503183015 59 349 0.9 4.3 0.00 0.28 0.28 67 1010.8
20260503182016 57 64 1.7 4.3 0.00 0.28 0.28 70 1011.0
20260503181025 54 172 1.7 4.3 0.00 0.28 0.28 75 1011.4
20260503180026 52 281 0.9 2.6 0.03 0.28 0.28 76 1011.7
20260503175026 51 102 0.9 3.5 0.03 0.28 0.28 78 1012.2
20260503174026 51 298 0.9 2.6 0.04 0.28 0.28 77 1012.7
20260503173028 51 16 0.9 2.6 0.05 0.28 0.28 80 1013.3
20260503172026 51 48 0.9 1.7 0.05 0.28 0.28 82 1013.5
20260503171026 51 106 0.9 2.6 0.05 0.27 0.27 81 1013.5
20260503131016 50 52 1.7 2.6 0.00 0.00 0.00 64 1015.1
20260503081021 42 51 0.9 1.7 0.00 0.00 0.00 71 1015.4
20260503072022 42 47 0.9 1.7 0.00 0.00 0.00 69 1015.3
20260503071016 43 241 1.7 5.2 0.00 0.00 0.00 68 1015.4
20260503055017 44 2 1.7 5.2 0.00 0.00 0.00 65 1016.1
20260503054017 44 264 1.7 6.1 0.00 0.00 0.00 65 1016.1
20260503053017 44 281 1.7 7.0 0.00 0.00 0.00 65 1016.2
20260503052017 44 315 1.7 7.0 0.00 0.00 0.00 66 1016.3
20260503051023 43 266 1.7 4.3 0.00 0.00 0.00 67 1016.3
20260503050023 43 32 1.7 4.3 0.00 0.00 0.00 67 1016.4
20260503045017 43 310 0.9 4.3 0.00 0.00 0.00 66 1016.4
20260503044018 43 19 0.0 2.6 0.00 0.00 0.00 66 1016.5
20260503043023 43 42 0.9 1.7 0.00 0.00 0.00 66 1016.4
20260503042104 43 55 0.0 2.6 0.00 0.00 0.00 66 1016.5
20260503041016 43 246 0.0 3.5 0.00 0.00 0.00 65 1016.5
20260503040016 43 133 0.0 6.1 0.00 0.00 0.00 65 1016.5
20260503035016 43 77 0.0 1.7 0.00 0.00 0.00 66 1016.5
20260503034016 44 360 0.0 2.6 0.00 0.00 0.00 65 1016.6
20260503033016 44 67 0.0 3.5 0.00 0.00 0.00 64 1016.5
20260503032016 45 37 0.0 2.6 0.00 0.00 0.00 63 1016.6
20260503031016 46 67 0.0 2.6 0.00 0.00 0.00 61 1016.6
20260503030038 46 49 0.0 1.7 0.00 0.00 0.00 59 1016.7
20260503025037 47 98 0.0 1.7 0.00 0.00 0.00 58 1016.7